This is the latest recevied weather packets stored in our database for station/object K9ABJ. If no packets are shown the sender has not sent any weather packets the latest 10 day(s).
| Time | Temp. | Humidity | Pressure | Rain* | Wind** | Luminosity | Snow |
|---|---|---|---|---|---|---|---|
| 1787678947 | 26.11° C | 55% | 1020.3 hPa | 0 mm | - | 666 W/m² | - |
| 1787678646 | 27.22° C | 59% | 1020.4 hPa | 0 mm | - | 629 W/m² | - |
| 1787678341 | 26.11° C | 57% | 1020.4 hPa | 0 mm | - | 500 W/m² | - |
| 1787678037 | 24.44° C | 64% | 1020.5 hPa | 0 mm | - | 632 W/m² | - |
| 1787677737 | 25° C | 60% | 1020.1 hPa | 0 mm | - | 500 W/m² | - |
| 1787677436 | 26.11° C | 63% | 1020.4 hPa | 0 mm | - | 373 W/m² | - |
| 1787677130 | 23.89° C | 64% | 1020.6 hPa | 0 mm | - | 414 W/m² | - |
| 1787676826 | 25.56° C | 62% | 1020.2 hPa | 0 mm | - | 424 W/m² | - |
| 1787676520 | 25° C | 63% | 1020.8 hPa | 0 mm | - | 531 W/m² | - |
| 1787676218 | 25.56° C | 63% | 1020.6 hPa | 0 mm | - | 559 W/m² | - |
| 1787675918 | 26.11° C | 60% | 1020.7 hPa | 0 mm | - | 670 W/m² | - |
| 1787675614 | 24.44° C | 64% | 1020.5 hPa | 0 mm | - | 502 W/m² | - |
| 1787675312 | 26.11° C | 62% | 1020.6 hPa | 0 mm | - | 498 W/m² | - |
| 1787675007 | 26.67° C | 62% | 1020.6 hPa | 0 mm | - | 610 W/m² | - |
| 1787674702 | 23.89° C | 66% | 1020.6 hPa | 0 mm | - | 673 W/m² | - |
| 1787674399 | 23.33° C | 66% | 1020.7 hPa | 0 mm | - | 519 W/m² | - |
| 1787674098 | 22.78° C | 67% | 1020.5 hPa | 0 mm | - | 513 W/m² | - |
| 1787673794 | 22.78° C | 67% | 1020.6 hPa | 0 mm | - | 511 W/m² | - |
| 1787673493 | 23.33° C | 65% | 1020.8 hPa | 0 mm | - | 497 W/m² | - |
| 1787673188 | 23.89° C | 67% | 1020.6 hPa | 0 mm | - | 532 W/m² | - |
| 1787672887 | 24.44° C | 63% | 1020.7 hPa | 0 mm | - | 503 W/m² | - |
| 1787672584 | 23.89° C | 66% | 1020.8 hPa | 0 mm | - | 528 W/m² | - |
| 1787672282 | 23.89° C | 65% | 1020.8 hPa | 0 mm | - | 546 W/m² | - |
| 1787671977 | 23.89° C | 67% | 1020.7 hPa | 0 mm | - | 609 W/m² | - |
| 1787671672 | 22.78° C | 67% | 1020.8 hPa | 0 mm | - | 592 W/m² | - |
* Rain latest hour (hover to see other rain measurements)
** Current wind speed in m/s (hover to see current wind gust speed)